Miscellaneous Local Product
Issued by NWS Hastings, NE

Home | Current Version | Previous Version | Graphics & Text | Print | Product List | Glossary On
Versions: 1 2 3 4 5 6 7 8 9 10 11 12 13 14 15 16 17 18 19 20 21 22 23 24 25 26 27 28 29 30 31 32 33 34 35 36 37 38 39 40 41 42 43 44 45 46 47 48 49 50
712
AXUS43 KGID 181802
MISGRI

GID CWA HOURLY WEATHER ROUNDUP
NATIONAL WEATHER SERVICE HASTINGS NE
100 PM CDT MON SEP 18 2017

NOTE: "FAIR" INDICATES FEW OR NO CLOUDS BELOW 12,000 FEET WITH NO
SIGNIFICANT WEATHER AND/OR OBSTRUCTIONS TO VISIBILITY.

...SOUTH CENTRAL NEBRASKA...

CITY           SKY/WX    TMP DP  RH WIND       PRES   REMARKS
GRAND ISLAND   CLOUDY    71  66  84 VRB5      29.95F
HASTINGS       PTSUNNY   73  65  75 S8        29.95F
KEARNEY        CLOUDY    69  62  78 W5        29.95F
ORD            CLOUDY    68  60  75 SW9       29.94F
YORK           PTSUNNY   68  68 100 S8        29.96S
AURORA         CLOUDY    66  66 100 S5        29.95F FOG
LEXINGTON      CLOUDY    67  60  76 SW3       29.96F
HOLDREGE       CLOUDY    71  59  65 W6        29.96F
HEBRON         CLOUDY    72  67  82 S7        29.96S

...NEBRASKA PANHANDLE...

CITY           SKY/WX    TMP DP  RH WIND       PRES   REMARKS
CHADRON        SUNNY     76  35  22 W7        29.90F
ALLIANCE       SUNNY     77  36  22 W16G22    29.94F
SCOTTSBLUFF    SUNNY     75  48  38 VRB5      29.96F
SIDNEY         SUNNY     79  38  22 SW12      30.00F

...WESTERN AND NORTH CENTRAL NEBRASKA...

CITY           SKY/WX    TMP DP  RH WIND       PRES   REMARKS
VALENTINE      SUNNY     76  54  46 SW9       29.89F
AINSWORTH      SUNNY     72  60  67 S10       29.90F
ONEILL         MOSUNNY   70  62  75 SW14      29.91F
BROKEN BOW     CLOUDY    65  58  78 S10       29.95F
IMPERIAL       SUNNY     75  53  46 N5        29.96F
NORTH PLATTE   SUNNY     70  58  65 S6        29.95F
MCCOOK         SUNNY     70  58  65 VRB3      29.95F

...EASTERN NEBRASKA...

CITY           SKY/WX    TMP DP  RH WIND       PRES   REMARKS
NORFOLK        CLOUDY    72  65  78 S13       29.94F
SO SIOUX CITY  CLOUDY    70  66  87 S13       29.94F
TEKAMAH        CLOUDY    69  64  84 S13G18    29.96F
COLUMBUS       CLOUDY    68  65  90 S8        29.96F
ALBION         CLOUDY    70  65  84 W6        29.95F
OMAHA EPPLEY   LGT RAIN  69  65  86 S8        29.97F
MILLARD        LGT RAIN  69  67  92 S7        29.97F
LINCOLN        CLOUDY    68  66  93 S8        29.97F
NEBRASKA CITY  CLOUDY    67  67 100 S14       29.98S
BEATRICE       CLOUDY    70  67  90 S10       29.96F
FALLS CITY     LGT RAIN  69  69 100 SE7       29.99S

...NORTHERN KANSAS...

CITY           SKY/WX    TMP DP  RH WIND       PRES   REMARKS
GOODLAND       SUNNY     72  56  57 VRB5      29.98F
HILL CITY      SUNNY     80  59  48 W7        29.94F
NORTON         CLOUDY    75  54  46 S5        29.94F
PHILLIPSBURG   MOSUNNY   75  63  64 SW5       29.95F
SMITH CENTER   MOSUNNY   75  64  69 SW5       29.94F
HAYS           MOSUNNY   82  59  45 SW14      29.94F
RUSSELL        SUNNY     84  56  38 SW16G24   29.93F
CONCORDIA      CLOUDY    71  68  90 S6        29.96S
SALINA         SUNNY     84  63  49 SW12      29.94F
TOPEKA         CLOUDY    73  70  90 S9        29.98F



USA.gov is the U.S. government's official web portal to all federal, state and local government web resources and services.